User: anonymous   Login
Location: Putah Creek Observatory
(38.7021°N, 122.3865°W)
Time: 04:48:17
(UTC-08:00)
Language:

ISS - Orbit

View from above orbital plane
View from above orbital plane
View from above satellite
View from above satellite

Ground track
Ground track

The orbit data is extracted from the following two-line orbital elements,

1 25544U 98067A   19317.62841834  .00016717  00000-0  10270-3 0  9059
2 25544  51.6401 340.3425 0006498 275.3150  84.7259 15.50012672 38432
Epoch (UTC): 13 November 2019 15:04:55
Eccentricity: 0.0006498
inclination: 51.6401°
perigee height: 412 km
apogee height: 421 km
right ascension of ascending node: 340.3425°
argument of perigee: 275.3150°
revolutions per day: 15.50012672
mean anomaly at epoch: 84.7259°
orbit number at epoch: 3843

The dashed part of the orbit path shows where the satellite is in the earth's shadow,  

DLR